Tracking 18844 objects as of 21-Nov-2017
HD Live streaming from Space Station
objects crossing your sky now

FENGYUN 1C DEB

Track FENGYUN 1C DEB now!
10-day predictions


NORAD ID: 31089
Int'l Code: 1999-025BGK
Perigee: 800.1 km
Apogee: 1,110.9 km
Inclination: 99.0 °
Period: 104.0 minutes
Semi major axis: 7326 km
RCS: 0.0058 m2 (small)
Launch date: May 10, 1999
Source: People's Republic of China (PRC)
Launch site: Taiyaun Space Center, China (TSC)

Note: This is SATELLITE DEBRIS
aabbcc
Your satellite tracking list
Your tracking list is empty




NASA's NSSDC Master Catalog

Two Line Element Set (TLE):
1 31089U 99025BGK 17323.92648444 +.00000117 +00000-0 +12055-3 0  9998
2 31089 099.0094 208.8192 0212120 263.0915 160.2599 13.84392710272829
Source of the keplerian elements: AFSPC